Weather reports worldwide

Advertisment
Herstmonceux, United Kingdom (3882): temperature & dewpoint: 12.10.2018 18:00:00 - 18.10.2018 18:00:00 (BST)Herstmonceux, United Kingdom (3882): temperature -20cm & temperature -100cm: 12.10.2018 18:00:00 - 18.10.2018 18:00:00 (BST)Herstmonceux, United Kingdom (3882): wind speed: 12.10.2018 18:00:00 - 18.10.2018 18:00:00 (BST)Herstmonceux, United Kingdom (3882): wind direction: 12.10.2018 18:00:00 - 18.10.2018 18:00:00 (BST)Herstmonceux, United Kingdom (3882): reduced air pressure: 12.10.2018 18:00:00 - 18.10.2018 18:00:00 (BST)Herstmonceux, United Kingdom (3882): visibility: 12.10.2018 18:00:00 - 18.10.2018 18:00:00 (BST)Herstmonceux, United Kingdom (3882): sunshine duration: 12.10.2018 18:00:00 - 18.10.2018 18:00:00 (BST)Herstmonceux, United Kingdom (3882): precipitation: 12.10.2018 18:00:00 - 18.10.2018 18:00:00 (BST)
Date & Time tt [°C] td [°C] tt -20cm [°C] tt -100cm [°C] ff [km/h] ff [kn] dd ppp [hPa] vv [km] sd [min] rr [mm]
18.10.2018 18:00:00 12,9 8,7 - - 8 4 NE 1025,6 30 24 -
18.10.2018 17:00:00 14,8 9,5 - - 9 5 ENE 1025,3 35 30 0,0
18.10.2018 16:00:00 15,5 9,6 - - 13 7 ENE 1025,2 29 42 0,0
18.10.2018 15:00:00 16,9 10,5 - - 11 6 NE 1025,4 30 48 0,0
18.10.2018 14:00:00 16,2 10,6 - - 9 5 NE 1025,6 30 42 0,0
18.10.2018 13:00:00 16,8 10,9 - - 16 9 E 1025,8 35 60 0,0
18.10.2018 12:00:00 15,8 11,1 - - 13 7 NE 1026,2 30 60 0,0
18.10.2018 11:00:00 14,3 11,1 - - 13 7 NE 1026,2 18 60 0,0
18.10.2018 10:00:00 13,0 10,7 15,7 15,4 15 8 NNE 1025,9 11 24 0,0
18.10.2018 09:00:00 11,5 10,5 - - 11 6 NNE 1025,5 10 0 0,0
18.10.2018 08:00:00 10,8 9,9 - - 9 5 NE 1025,0 8 0 0,0
18.10.2018 07:00:00 11,0 10,1 - - 9 5 NE 1024,8 7 0 0,0
18.10.2018 06:00:00 11,1 9,9 - - 11 6 NNE 1024,5 8 0 0,0
18.10.2018 05:00:00 11,6 9,8 - - 11 6 NNE 1024,4 11 0 0,0
18.10.2018 04:00:00 12,1 10,2 - - 9 5 NNE 1024,0 10 0 0,0
18.10.2018 03:00:00 12,9 11,4 - - 9 5 NE 1023,8 7 0 0,0
18.10.2018 02:00:00 13,1 11,9 - - 9 5 NNE 1023,8 8 0 0,0
18.10.2018 01:00:00 13,3 12,0 - - 8 4 NNE 1024,0 10 - 0,0
18.10.2018 00:00:00 13,6 12,4 - - 8 4 NE 1023,6 10 0 0,0
17.10.2018 23:00:00 13,4 13,0 - - 4 2 ENE 1023,3 9 0 0,0
17.10.2018 22:00:00 13,1 12,9 - - 4 2 NE 1022,9 8 0 0,0
17.10.2018 21:00:00 11,6 11,0 - - 2 1 NE 1022,4 9 0 0,0
17.10.2018 20:00:00 12,4 11,7 - - 5 3 NNE 1021,6 15 0 0,0
17.10.2018 19:00:00 13,1 11,2 - - 2 1 NNE 1021,0 21 0 0,0
17.10.2018 18:00:00 15,0 12,3 - - 5 3 N 1020,0 30 12 0,0
17.10.2018 17:00:00 17,4 12,5 - - 8 4 N 1019,7 25 48 0,0
17.10.2018 16:00:00 17,6 11,4 - - 9 5 NNW 1019,4 45 60 0,0
17.10.2018 15:00:00 19,1 11,4 - - 4 2 WNW 1019,4 35 54 0,0
17.10.2018 14:00:00 17,7 10,3 - - 4 2 NW 1019,3 21 42 0,0
17.10.2018 13:00:00 18,2 8,9 - - 2 1 S 1019,3 45 54 0,0
17.10.2018 12:00:00 17,7 10,6 - - 5 3 SSW 1019,5 45 60 0,0
17.10.2018 11:00:00 16,3 12,0 - - 4 2 SW 1019,4 30 60 0,0
17.10.2018 10:00:00 13,7 13,4 15,7 15,4 2 1 E 1019,4 30 24 0,0
17.10.2018 09:00:00 10,0 9,8 - - 4 2 E 1019,1 11 0 0,0
17.10.2018 08:00:00 8,8 8,4 - - 4 2 ENE 1018,9 9 0 0,0
17.10.2018 07:00:00 9,7 9,3 - - 2 1 ENE 1018,5 9 0 0,0
17.10.2018 06:00:00 10,4 10,1 - - 4 2 ENE 1018,1 14 0 0,0
17.10.2018 05:00:00 10,3 9,9 - - 2 1 SSW 1017,9 17 0 0,0
17.10.2018 04:00:00 10,6 9,3 - - 4 2 WSW 1017,8 20 0 0,0
17.10.2018 03:00:00 12,4 10,6 - - 5 3 WSW 1018,0 35 0 0,0
17.10.2018 02:00:00 13,7 12,1 - - 8 4 W 1018,0 26 0 0,0
17.10.2018 01:00:00 13,2 12,6 - - 5 3 SW 1018,0 8 - 0,0
17.10.2018 00:00:00 13,5 12,8 - - 2 1 S 1018,0 8 0 0,0
16.10.2018 23:00:00 13,9 13,0 - - 5 3 W 1018,1 12 0 0,0
16.10.2018 22:00:00 14,3 13,0 - - 5 3 W 1018,1 30 0 0,0
16.10.2018 21:00:00 14,3 13,6 - - 5 3 WSW 1018,2 7 0 0,0
16.10.2018 20:00:00 14,4 13,2 - - 8 4 SW 1017,7 7 0 0,0
16.10.2018 19:00:00 15,1 13,4 - - 8 4 SW 1017,6 16 0 0,0
16.10.2018 18:00:00 15,1 13,1 - - 9 5 SW 1017,3 19 0 0,0
16.10.2018 17:00:00 15,2 13,0 - - 9 5 SW 1017,1 16 0 0,0
16.10.2018 16:00:00 16,1 13,6 - - 13 7 WSW 1017,0 12 6 0,0
16.10.2018 15:00:00 18,6 14,1 - - 15 8 SW 1016,7 35 60 0,0
16.10.2018 14:00:00 19,3 13,9 - - 16 9 SW 1016,4 21 60 0,0
16.10.2018 13:00:00 19,8 14,3 - - 13 7 SSW 1016,4 25 60 0,0
16.10.2018 12:00:00 19,4 14,3 - - 11 6 SW 1016,7 30 60 0,0
16.10.2018 11:00:00 18,7 14,6 - - 11 6 SSW 1016,6 19 60 0,0
16.10.2018 10:00:00 16,0 16,0 15,7 15,4 4 2 SSW 1016,3 10 30 0,0
16.10.2018 09:00:00 13,7 13,7 - - 2 1 SSE 1016,3 4,9 0 0,0
16.10.2018 08:00:00 12,0 12,0 - - 2 1 SE 1015,9 1,4 0 0,0
16.10.2018 07:00:00 11,9 11,8 - - 4 2 ESE 1015,3 2,8 0 0,0
16.10.2018 06:00:00 13,1 13,1 - - 4 2 E 1015,0 0,2 0 0,0
16.10.2018 05:00:00 13,9 13,8 - - 5 3 ENE 1014,6 0,5 0 0,0
16.10.2018 04:00:00 14,6 14,6 - - 9 5 ENE 1014,4 1,2 0 0,0
16.10.2018 03:00:00 14,4 14,4 - - 5 3 E 1014,9 0,7 0 0,0
16.10.2018 02:00:00 14,2 14,1 - - 11 6 E 1014,5 1,0 0 0,2
16.10.2018 01:00:00 14,3 14,3 - - 9 5 ENE 1014,8 0,5 - 0,0
16.10.2018 00:00:00 14,4 14,3 - - 8 4 ENE 1014,8 0,6 0 0,0
15.10.2018 23:00:00 14,6 14,5 - - 9 5 E 1014,6 0,7 0 0,0
15.10.2018 22:00:00 14,5 14,4 - - 5 3 NE 1014,2 0,5 0 0,0
15.10.2018 21:00:00 14,5 14,2 - - 5 3 NE 1013,7 0,6 0 0,0
15.10.2018 20:00:00 14,2 13,6 - - 5 3 ENE 1013,2 2,9 0 0,0
15.10.2018 19:00:00 15,1 13,8 - - 4 2 NNW 1013,0 10 0 0,0
15.10.2018 18:00:00 17,7 14,3 - - 2 1 ESE 1012,5 18 30 0,0
15.10.2018 17:00:00 19,1 15,3 - - 4 2 ESE 1011,9 14 18 0,0
15.10.2018 16:00:00 18,7 15,4 - - 4 2 SSE 1011,5 28 6 0,0
15.10.2018 15:00:00 18,7 15,2 - - 8 4 S 1010,9 29 42 0,0
15.10.2018 14:00:00 19,9 16,4 - - 8 4 S 1010,5 20 24 0,0
15.10.2018 13:00:00 18,8 16,2 - - 9 5 S 1010,3 14 6 0,0
15.10.2018 12:00:00 18,4 16,8 - - 4 2 E 1010,2 8 6 0,0
15.10.2018 11:00:00 16,7 15,9 - - 4 2 ENE 1009,7 6 0 0,0
15.10.2018 10:00:00 15,5 15,3 15,7 15,2 4 2 N 1009,0 5 6 0,0
15.10.2018 09:00:00 14,3 14,3 - - 5 3 ENE 1008,1 3,8 0 0,0
15.10.2018 08:00:00 13,6 13,5 - - 8 4 NE 1007,6 3,5 0 0,0
15.10.2018 07:00:00 13,7 13,6 - - 5 3 NE 1007,1 3,1 0 0,0
15.10.2018 06:00:00 13,5 13,4 - - 4 2 NNE 1007,2 1,9 0 0,0
15.10.2018 05:00:00 13,1 13,0 - - 11 6 ENE 1006,4 2,8 0 0,0
15.10.2018 04:00:00 12,6 12,4 - - 11 6 NE 1006,3 5 0 0,0
15.10.2018 03:00:00 12,2 12,0 - - 13 7 NNE 1006,5 9 0 0,0
15.10.2018 02:00:00 11,9 11,6 - - 11 6 NNE 1007,1 11 0 0,0
15.10.2018 01:00:00 11,4 11,0 - - 13 7 ENE 1007,0 28 - 1,0
15.10.2018 00:00:00 11,4 10,9 - - 13 7 NE 1006,5 22 0 0,6
14.10.2018 23:00:00 11,3 10,9 - - 16 9 NE 1006,3 30 0 4,8
14.10.2018 22:00:00 11,3 10,8 - - 13 7 NNE 1006,6 1,7 0 9,4
14.10.2018 21:00:00 12,1 10,7 - - 15 8 NE 1006,3 45 0 0,0
14.10.2018 20:00:00 12,3 11,1 - - 15 8 NE 1006,5 35 0 0,0
14.10.2018 19:00:00 12,6 11,0 - - 13 7 NE 1006,5 50 0 0,0
14.10.2018 18:00:00 13,3 11,9 - - 9 5 NE 1005,9 35 0 0,0
14.10.2018 17:00:00 13,8 12,3 - - 11 6 NNE 1005,4 40 0 0,0
14.10.2018 16:00:00 14,2 12,4 - - 15 8 N 1004,9 40 0 0,0
14.10.2018 15:00:00 16,2 13,4 - - 11 6 N 1004,2 24 0 0,0
14.10.2018 14:00:00 17,9 15,5 - - 2 1 SSE 1003,5 19 0 0,0
14.10.2018 13:00:00 18,1 15,6 - - 8 4 SSE 1003,7 19 0 0,0
14.10.2018 12:00:00 17,7 15,2 - - 9 5 S 1004,0 22 0 0,0
14.10.2018 11:00:00 18,9 15,5 - - 8 4 SSE 1003,6 17 30 0,0
14.10.2018 10:00:00 17,5 16,6 16,0 15,2 5 3 SE 1004,1 17 6 0,0
14.10.2018 09:00:00 16,4 16,3 - - 5 3 SE 1004,3 12 0 0,0
14.10.2018 08:00:00 16,0 15,8 - - 5 3 ENE 1004,1 3,4 0 0,0
14.10.2018 07:00:00 15,7 15,5 - - 4 2 NE 1004,4 2,6 0 0,0
14.10.2018 06:00:00 15,6 15,3 - - 4 2 ENE 1005,2 2,7 0 0,4
14.10.2018 05:00:00 15,5 15,2 - - 5 3 E 1005,7 4,3 0 0,0
14.10.2018 04:00:00 15,3 14,7 - - 4 2 SE 1006,5 3,3 0 0,0
14.10.2018 03:00:00 16,5 15,6 - - 4 2 SSW 1007,3 9 0 0,0
14.10.2018 02:00:00 17,4 16,0 - - 5 3 S 1007,5 12 0 0,0
14.10.2018 01:00:00 18,9 16,5 - - 9 5 SW 1007,7 19 - 0,0
14.10.2018 00:00:00 19,1 16,0 - - 8 4 SW 1008,2 27 0 0,0
13.10.2018 23:00:00 19,7 16,3 - - 13 7 SSW 1008,5 30 0 0,0
13.10.2018 22:00:00 20,1 16,4 - - 13 7 SW 1009,2 30 0 0,0
13.10.2018 21:00:00 19,1 16,4 - - 11 6 SSW 1009,7 30 0 0,0
13.10.2018 20:00:00 18,4 16,2 - - 5 3 SSW 1009,9 25 0 0,0
13.10.2018 19:00:00 18,0 15,8 - - 8 4 SSW 1009,8 18 0 0,0
13.10.2018 18:00:00 19,0 16,4 - - 8 4 SSW 1009,6 20 0 0,0
13.10.2018 17:00:00 19,3 16,4 - - 8 4 S 1009,8 17 0 0,0
13.10.2018 16:00:00 20,8 16,8 - - 11 6 S 1009,5 25 12 0,0
13.10.2018 15:00:00 21,8 17,2 - - 13 7 SSW 1010,4 35 18 0,0
13.10.2018 14:00:00 19,8 16,5 - - 11 6 S 1011,3 18 6 0,0
13.10.2018 13:00:00 21,2 16,9 - - 13 7 S 1011,9 28 18 0,0
13.10.2018 12:00:00 20,0 16,5 - - 13 7 SSW 1012,8 20 0 0,0
13.10.2018 11:00:00 18,9 15,6 - - 15 8 SSW 1013,3 16 0 0,0
13.10.2018 10:00:00 18,5 15,1 15,7 15,0 16 9 SSW 1013,6 22 0 0,0
13.10.2018 09:00:00 18,0 14,3 - - 15 8 SSW 1013,5 25 0 0,0
13.10.2018 08:00:00 17,7 14,2 - - 11 6 SSW 1013,4 20 0 0,0
13.10.2018 07:00:00 17,6 14,0 - - 11 6 SSW 1013,2 22 0 0,0
13.10.2018 06:00:00 17,6 14,2 - - 11 6 SSW 1013,3 24 0 0,0
13.10.2018 05:00:00 18,1 14,0 - - 15 8 SSW 1013,5 24 0 0,0
13.10.2018 04:00:00 18,5 13,6 - - 16 9 SSW 1013,4 29 0 0,0
13.10.2018 03:00:00 18,1 14,4 - - 16 9 SSW 1014,1 22 0 0,0
13.10.2018 02:00:00 18,2 14,5 - - 15 8 SSW 1014,4 21 0 0,0
13.10.2018 01:00:00 18,7 14,4 - - 21 11 SSW 1014,3 21 - 0,0
13.10.2018 00:00:00 18,3 15,0 - - 21 11 SSW 1014,2 20 0 0,0
12.10.2018 23:00:00 18,4 15,1 - - 21 11 SSW 1014,3 19 0 0,0
12.10.2018 22:00:00 18,9 15,0 - - 21 11 SSW 1014,3 19 0 0,0
12.10.2018 21:00:00 18,5 15,7 - - 18 10 SSW 1014,1 16 0 0,0
12.10.2018 20:00:00 18,3 15,5 - - 18 10 SSW 1014,2 19 0 0,0
12.10.2018 19:00:00 18,8 15,3 - - 21 11 SSW 1013,8 20 0 0,0
12.10.2018 18:00:00 18,5 15,2 - - 21 11 SSW 1013,1 19 0 0,0

tt = temperature
td = dewpoint
tt -20cm = temperature -20cm
tt -100cm = temperature -100cm
ff = wind speed
dd = wind direction
ppp = reduced air pressure
vv = visibility
sd = sunshine duration
rr = precipitation

Next stations